Location: Bacharowice
(49.9333°N, 19.5833°E)
Time: 23:43:30
(UTC+00:00)

IGS 5A - Pass Details

Date: 11 May 2021
Orbit: 583 x 588 km, 97.6° (Epoch: 06 May)

Event Time Altitude Azimuth Distance (km) Brightness Sun altitude
Exits shadow 18:48:05 - 150° (SSE) 2,384 6.0 -5.2°
Reaches altitude 10° 18:49:16 10° 146° (SSE) 1,902 5.5 -5.4°
Maximum altitude 18:53:16 51° 71° (ENE) 743 3.8 -5.9°
Drops below altitude 10° 18:57:18 10° 356° (N) 1,919 6.7 -6.4°
Sets 18:59:30 0° 351° (N) 2,825 7.8 -6.7°
